CAPE
3 3 3 2 2 2 2 2 1 0 1 2 2 1 0 1 1 0 0 0 1 0 0 0 0 0 0 0 0 0 0 0 0 0 0 0 0 9 0 36 1064 2605 2455 1400 1416 1560 1681 1848 2295 2872 3035 2507 2082 2193 1486 2364 2050 1726 1887 1061 563 698 507 698 637 850 695 1024 877 1026 1116 908 878 849 645 630 734 947 759 889 677 551 818 973 857 1250 1372 1473
3 3 3 2 2 2 2 2 0 0 0 2 2 1 0 0 0 0 0 0 0 1 0 0 0 0 0 0 0 0 0 0 0 0 0 0 0 24 0 318 1668 2588 2722 1356 1445 1501 1656 1853 2440 2592 2370 2102 1079 2207 1757 2025 1410 2080 1071 701 825 779 1263 1612 1258 1294 1345 1088 944 714 879 1224 915 985 502 982 774 808 910 904 866 915 1030 861 1001 1209 1399 1440
3 3 3 3 2 2 2 2 1 0 0 2 2 0 0 0 0 0 0 0 0 0 0 0 0 0 0 0 0 0 0 0 0 0 0 0 164 161 13 1016 2357 2038 1386 1419 1455 1292 1675 1946 2048 1980 1628 1836 1854 2084 1642 1968 1596 1469 1318 910 1042 634 1119 2061 1488 1263 1032 1141 1120 969 559 892 641 1035 425 970 684 718 705 824 1098 1170 1096 1231 1088 1118 1173 1378
3 3 2 2 2 2 1 2 1 0 0 1 2 0 0 0 0 0 0 1 0 0 0 0 0 0 0 0 0 0 0 0 0 0 95 241 71 571 251 1776 2094 2086 1318 1179 1226 1416 1452 1396 1872 1664 1658 1618 1598 1726 2216 1470 1687 1357 1344 1095 1026 1282 1202 1485 1621 1436 1320 1235 1386 1195 496 512 655 1033 629 617 683 632 426 353 681 1340 1150 1289 995 1124 1180 1263
2 2 2 1 1 1 1 1 1 0 0 1 2 1 0 0 0 0 0 0 0 0 0 0 0 0 0 0 0 0 0 0 0 0 352 302 370 461 875 2649 1671 766 1021 1306 1334 1441 1553 1785 1686 1756 1337 1018 1123 1929 1488 1289 1218 963 1282 853 942 1014 1301 1472 1601 1588 1267 1219 1298 918 835 1036 883 902 585 614 843 415 314 344 461 1065 1198 1095 961 916 1210 1150
2 2 2 2 1 0 1 2 1 1 1 1 2 1 1 0 0 0 0 0 0 0 0 0 0 0 0 0 0 0 0 0 0 48 1211 1958 470 788 1630 2419 1723 630 1164 1614 1682 1724 1745 1691 1584 2071 1601 1028 662 1061 896 1540 1153 948 1142 964 902 1226 1825 1269 1382 1613 1504 1389 1421 1344 1170 773 742 803 674 799 931 429 318 433 444 921 962 1024 842 834 1194 1037
3 2 2 2 1 2 2 2 1 0 0 1 2 0 0 0 0 0 0 2 0 0 0 0 0 0 0 0 0 0 0 0 0 167 898 1236 675 1586 2140 2126 1901 1095 1308 1634 1730 1779 1702 1660 1510 1350 1046 1090 455 789 826 1393 1253 953 1217 845 1516 1786 1829 1236 1150 1435 1134 1171 1754 1500 901 1499 892 919 890 812 728 380 454 598 514 898 1069 740 867 785 1052 916
2 3 2 1 1 2 1 2 2 1 0 1 2 0 0 0 0 0 0 1 1 0 0 0 0 0 0 0 0 0 0 0 0 419 1024 898 882 1974 2404 688 1171 1089 1324 1558 1782 1648 1562 1504 1527 928 1124 587 364 855 749 2092 1201 1490 1303 1069 1447 1685 1516 981 858 936 1620 1484 1594 1584 1709 1381 1294 1385 751 848 589 534 531 727 906 901 1151 1075 935 793 1042 1018
3 2 2 2 1 1 2 2 2 2 1 1 2 1 0 0 0 1 0 2 1 0 0 0 0 0 0 0 0 0 0 0 1 120 324 5 259 1456 903 941 892 1027 1328 1516 1633 1403 1555 1224 1304 752 770 626 440 868 875 942 1135 364 868 990 1347 1617 1700 1527 1576 1730 1522 1756 1651 1563 1551 1144 1517 906 952 781 552 638 759 715 1016 1107 1129 1159 1026 958 1027 1108
2 2 2 2 1 1 2 2 2 2 2 0 2 1 0 0 0 1 1 1 1 1 0 0 0 1 0 0 0 0 0 0 0 190 8 89 435 876 792 762 872 1071 1311 1368 1492 1572 1507 1012 1252 811 900 1028 550 529 962 671 442 632 835 1265 1312 1622 1638 1389 1792 1728 1388 1367 1694 1586 1483 1331 1002 1155 1176 844 635 852 815 869 1018 1133 1100 1147 1075 1042 1109 1106
1 2 2 3 1 1 2 2 2 2 2 2 3 2 0 0 0 0 1 0 0 0 0 0 0 0 0 0 0 0 0 0 42 217 8 439 555 784 810 833 920 1152 1093 1205 1330 1382 1317 1240 1034 1044 906 330 607 588 820 406 563 748 770 1221 1518 1730 1210 1341 756 854 849 1657 1744 1852 1226 1305 1076 809 1031 663 812 789 825 878 975 970 1084 1097 1014 1061 1056 952
1 1 2 1 1 1 2 2 2 2 2 2 3 1 0 0 0 0 0 1 0 0 0 0 0 0 0 0 0 0 0 0 0 118 135 265 333 585 526 783 900 1016 877 1011 1091 1315 1326 970 837 821 817 423 763 309 855 582 894 741 629 1154 866 1339 1214 1392 672 557 264 1262 1801 2291 1084 819 1286 745 999 714 770 774 892 916 896 809 949 1042 1017 920 1011 952
2 1 1 2 2 1 2 1 2 1 1 2 2 1 0 0 0 0 0 0 0 0 0 0 0 0 0 0 0 0 0 0 0 0 2 95 63 302 386 617 786 849 858 794 816 990 1050 901 776 782 614 398 392 516 652 785 1118 856 697 513 1022 1199 1305 1773 1050 729 410 818 1224 2039 912 524 767 1017 936 903 758 790 944 1130 938 792 614 923 977 940 965 1021
2 2 2 3 2 2 1 1 1 1 1 2 1 0 1 0 0 0 0 0 0 0 0 0 0 0 0 0 0 0 0 0 0 0 0 0 0 2 62 574 869 818 678 707 769 970 813 738 709 651 361 350 520 460 800 826 590 1154 1618 813 752 615 79 1627 926 1140 354 1826 1678 1068 685 286 590 1392 1172 842 755 837 924 950 931 853 450 724 904 1008 795 937
2 2 2 3 2 2 2 1 2 1 1 1 1 0 0 0 0 0 0 0 0 0 0 0 0 0 0 0 0 0 0 0 0 0 0 0 0 0 0 219 384 360 244 180 250 260 429 583 476 362 416 353 311 326 363 414 688 679 818 1101 315 267 54 1881 1876 1440 252 1914 1166 1129 665 244 340 1314 1578 1008 1015 863 917 894 946 966 487 477 733 748 770 982
2 2 4 6 2 2 2 1 4 4 1 1 0 0 0 0 0 0 0 0 0 0 0 0 0 0 0 0 0 0 0 0 0 0 0 0 0 0 0 49 124 55 51 5 92 286 302 232 240 285 339 364 268 268 247 302 793 669 181 432 68 70 69 648 1855 1594 1415 974 1933 1127 740 286 1431 1028 1218 1124 1298 876 980 942 1015 994 673 414 542 737 754 886
2 5 6 6 2 2 1 3 4 4 3 1 0 0 0 0 0 0 0 0 0 0 0 0 0 0 0 0 0 0 0 0 0 0 0 0 0 16 0 0 0 0 0 19 134 297 325 44 74 160 217 333 418 285 289 140 106 576 92 84 77 32 30 534 844 2200 1948 1519 1480 1502 1096 581 724 763 1214 1200 1133 926 1033 1054 975 1035 822 429 440 501 640 761
6 6 6 5 4 1 2 2 3 3 2 0 0 0 0 0 0 0 0 0 0 0 0 0 0 0 0 0 0 0 0 0 0 0 0 0 0 0 3 0 0 0 0 2 251 71 284 129 182 349 258 197 34 21 182 139 99 34 22 64 44 11 23 3 0 1820 1727 2166 1158 1268 1400 802 676 1285 1072 1054 1080 988 1087 1133 1009 1038 866 453 303 429 404 580
5 5 6 5 4 4 2 2 2 3 2 0 0 0 0 0 0 0 0 0 0 0 0 0 0 0 0 0 0 0 0 0 0 0 0 0 0 0 0 0 0 3 4 15 260 31 165 276 325 312 284 208 59 52 76 59 61 45 24 18 12 20 14 7 16 768 623 921 1762 1042 676 710 896 1195 1245 1078 1176 1135 1146 1238 1177 1059 994 669 246 291 318 382
2 4 4 4 3 3 3 4 3 2 0 0 0 0 0 0 0 0 0 0 0 0 0 0 0 0 0 0 0 0 0 0 0 0 0 0 0 0 0 0 0 0 0 17 126 238 264 316 305 211 141 158 80 81 33 138 102 29 50 69 59 1 8 182 259 194 518 255 405 723 1022 756 444 631 1307 1221 1159 1178 1149 1160 1108 1090 987 855 407 286 318 278
4 4 4 2 2 3 5 5 3 2 2 0 0 0 0 0 0 0 0 0 0 0 0 0 0 0 0 0 0 0 0 0 0 0 0 0 0 0 0 0 0 0 0 0 164 321 317 355 253 190 71 178 95 73 82 78 55 37 36 15 20 0 0 1 0 1008 734 342 1 549 728 629 645 602 870 1313 1276 1134 1081 1126 1122 1082 970 904 739 473 368 388
3 3 2 3 4 3 4 6 2 1 0 0 0 0 0 0 0 0 0 0 0 0 0 0 0 0 0 0 0 0 0 0 0 0 0 0 0 0 0 0 0 0 0 0 130 146 290 329 205 198 254 70 63 32 21 73 88 87 108 70 0 0 0 2 250 347 1152 534 163 203 485 669 660 803 852 1318 1442 1222 1014 1021 1060 1076 1040 983 874 685 527 443
2 3 3 4 3 4 2 4 1 0 0 0 0 0 0 0 0 0 0 0 0 0 0 0 0 0 0 0 0 0 0 0 0 0 0 0 0 0 0 0 0 0 0 5 78 18 32 109 119 148 99 86 48 51 12 23 25 53 27 1 14 0 0 0 1242 1433 1807 380 229 657 17 178 467 644 1043 1545 1638 1396 1227 994 962 924 1012 956 924 871 650 517
1 1 3 2 6 2 2 1 1 0 0 0 0 0 0 0 0 0 0 0 0 0 0 0 0 0 0 0 0 0 0 0 0 0 0 0 0 0 0 0 0 0 0 1 0 0 0 0 0 35 20 3 17 16 0 24 21 1 0 0 0 0 0 0 45 352 1252 1416 1166 1283 1035 823 816 908 1454 1524 1964 1669 1534 1238 1101 1015 947 902 846 861 795 610
2 1 1 2 0 4 0 2 0 0 0 0 0 0 0 0 0 0 0 0 0 0 0 0 0 0 0 0 0 0 0 0 0 0 0 0 0 0 0 0 0 0 0 0 0 0 0 0 0 0 0 0 0 8 2 55 29 0 0 0 0 0 0 0 0 9 13 929 2158 1704 8 18 220 228 599 1451 2049 2007 1891 1535 1356 1258 1137 1088 907 836 791 765
0 1 1 1 3 1 2 0 0 0 0 0 0 0 0 0 0 0 0 0 0 0 0 0 0 0 0 0 0 0 0 0 0 0 0 0 0 0 0 0 0 0 0 0 0 0 0 0 0 0 0 0 0 4 20 16 22 0 0 0 0 0 0 0 0 1 0 3 1463 922 161 18 211 255 622 2108 1928 1989 2260 1858 1443 1421 1330 1150 1117 896 785 692
0 1 0 0 0 1 0 0 0 0 0 0 0 0 0 0 0 0 0 0 0 0 0 0 0 0 0 0 0 0 0 0 0 0 0 0 0 0 0 0 0 0 0 0 0 0 0 0 0 0 0 0 0 3 14 8 8 0 0 0 0 0 0 0 0 0 0 93 550 144 262 32 4 578 1147 1310 1239 1589 1986 2082 1706 1463 1550 1206 1162 1016 969 776
0 1 0 0 0 0 0 0 0 0 0 0 0 0 0 0 0 0 0 0 0 0 0 0 0 0 0 0 0 0 0 0 0 0 0 0 0 0 0 0 0 0 0 0 0 0 0 0 0 0 0 0 0 0 18 25 0 0 0 0 0 0 0 0 0 0 28 13 24 994 607 231 7 686 1138 655 598 951 1318 1863 2022 1708 1591 1474 1296 1040 969 894
0 0 0 0 0 0 0 0 0 0 0 0 0 0 0 0 0 0 0 0 0 0 0 0 0 0 0 0 0 0 0 0 0 0 0 0 0 0 0 0 0 0 0 0 0 0 0 0 0 0 0 0 0 0 0 6 28 0 0 0 1 29 15 4 0 6 154 55 0 39 318 16 1 0 1296 1362 608 375 651 1057 1651 1973 1740 1655 1378 1183 934 896
0 0 0 0 0 0 0 0 0 0 0 0 0 0 0 0 0 0 0 0 0 0 0 0 0 0 0 0 0 0 0 0 0 0 0 0 0 0 0 0 0 0 0 0 0 0 0 0 0 0 0 0 0 0 0 3 0 0 0 0 13 62 102 24 185 142 222 1 6 2 58 0 2 0 0 285 243 5 18 489 885 1497 1890 1819 1655 1291 1071 930
0 0 0 0 0 0 0 0 0 0 0 0 0 0 0 0 0 0 0 0 0 0 0 0 0 0 0 0 0 0 0 0 0 0 0 0 0 0 0 0 0 0 0 0 0 0 0 0 0 0 0 0 0 0 0 0 0 0 0 0 0 74 150 358 319 139 42 0 178 27 0 73 1 0 0 0 44 0 0 49 525 892 1595 2064 1973 1476 1187 1043
0 0 0 0 0 0 0 0 0 0 0 0 0 0 0 0 0 0 0 0 0 0 0 0 0 0 0 0 0 0 0 0 0 0 0 0 0 0 0 0 0 0 0 0 0 0 0 0 0 0 0 0 0 0 0 0 0 0 0 0 0 0 0 1 50 47 0 0 101 1 160 339 32 0 0 0 0 0 120 211 257 235 861 1651 1970 1626 1404 1251
0 0 0 0 0 0 0 0 0 0 0 0 0 0 0 0 0 0 0 0 0 0 0 0 0 0 0 0 0 0 0 0 0 0 0 0 0 0 0 0 0 0 0 0 0 0 0 0 0 0 0 0 0 0 0 0 0 0 0 0 0 0 0 0 0 2 16 0 0 2 543 119 0 0 0 0 0 31 174 372 377 419 394 1021 1552 1840 1390 1392
0 0 0 0 0 0 0 0 0 0 0 0 0 0 0 0 0 0 0 0 0 0 0 0 0 0 0 0 0 1 2 2 14 22 8 19 5 5 0 0 0 0 0 0 0 0 0 0 0 0 0 0 0 0 7 26 1 0 0 0 0 4 3 0 0 0 0 0 99 375 356 4 0 0 0 0 53 326 315 268 863 994 1065 1527 1235 1538 1515 1479
0 0 0 0 0 0 0 0 0 0 0 0 0 0 0 0 0 0 0 0 0 0 0 0 0 0 0 0 0 0 0 6 24 33 37 41 34 14 21 0 0 0 0 0 0 0 0 0 0 0 0 0 0 0 0 0 0 0 0 0 0 23 0 0 5 0 0 0 6 361 2 0 0 22 21 133 147 276 786 1024 1079 1309 1121 1846 1471 1664 1601 1526
0 0 0 0 0 0 0 0 0 0 0 0 0 0 0 0 0 0 0 0 0 0 0 0 0 0 0 0 25 6 12 20 12 29 29 28 9 9 2 2 0 0 0 0 0 0 0 0 0 0 0 0 0 0 0 0 12 0 0 0 0 0 0 0 1 0 0 0 0 0 0 0 0 0 0 100 460 793 1168 1184 1069 1192 924 1158 1325 1572 1794 1722
0 0 0 0 0 0 0 0 0 0 0 0 0 0 0 0 0 0 0 0 0 0 0 0 0 2 0 2 8 33 17 24 21 18 6 0 11 10 11 0 0 0 0 0 0 0 0 0 0 0 0 0 0 0 0 0 0 0 0 0 0 0 0 0 2 60 0 0 134 93 0 0 0 0 0 67 17 298 1148 1056 851 1387 1428 1382 1614 1735 1885 1854
0 0 0 0 0 0 0 0 0 0 0 0 0 0 0 0 0 0 0 0 0 0 0 0 1 1 1 102 61 73 13 6 6 0 0 0 39 57 115 2 0 33 0 0 0 1 0 0 0 0 0 0 0 0 0 0 0 0 0 0 0 5 0 0 0 0 0 0 0 0 0 0 0 0 0 0 0 46 1263 1828 1108 1299 1499 1544 1728 1860 2046 1984
0 0 0 0 0 0 0 0 0 0 0 0 0 0 0 0 0 0 0 0 0 0 0 0 3 14 32 102 182 66 78 42 0 7 45 0 14 119 224 7 205 88 143 25 0 0 0 0 0 0 0 0 0 0 0 0 0 0 0 0 0 0 0 35 3 0 0 0 0 0 0 0 0 0 0 0 0 5 914 1384 1288 1125 1345 1412 1615 1971 2253 2196
0 0 0 0 0 0 0 0 0 0 0 0 0 0 0 0 0 0 0 0 0 0 0 2 10 33 75 111 155 146 112 27 2 0 6 1 7 16 193 156 112 207 250 147 2 0 0 0 0 0 0 0 0 0 0 0 0 0 0 0 0 0 0 0 0 0 0 0 0 0 0 0 0 0 0 0 0 210 734 1310 1796 1509 1178 1364 1629 2032 2308 2408
0 0 0 0 0 0 0 0 0 0 0 0 0 0 0 0 0 0 0 0 0 0 1 20 74 116 131 232 222 220 287 173 73 31 8 0 64 5 98 46 98 245 308 241 0 0 0 0 0 0 0 0 0 0 0 0 0 0 0 0 0 0 0 0 0 0 0 0 0 0 0 0 0 60 261 68 1516 1371 2157 1423 1439 1404 1367 1885 2054 2410 2720 2610
0 0 0 0 0 0 0 0 0 0 0 0 0 0 0 0 0 0 0 0 0 1 4 40 53 149 186 272 180 68 304 303 277 126 92 161 67 108 80 24 83 213 445 407 76 0 0 0 0 0 0 0 0 0 0 0 0 0 0 0 0 0 0 0 0 15 0 0 0 0 0 0 78 23 268 844 1741 1623 1724 1421 1495 1787 2120 2436 2254 2474 2980 2830
0 0 0 0 0 0 0 0 0 0 0 0 0 0 0 0 0 0 0 0 0 0 12 40 48 182 285 307 328 308 262 136 286 400 248 158 105 60 14 18 5 263 514 570 262 78 0 0 5 0 0 0 0 0 0 0 0 0 0 0 0 4 4 5 20 18 0 0 0 0 0 0 361 1746 1442 2214 2096 1766 2013 2413 2013 2163 2494 2945 3052 2925 2907 3018
0 0 0 0 0 0 0 0 0 0 0 0 0 0 0 0 0 0 0 0 0 0 10 26 82 59 209 238 363 373 222 326 193 288 268 235 195 29 8 16 0 96 368 335 347 782 29 2 0 3 2 0 0 0 0 0 0 0 0 0 0 0 0 0 0 0 6 0 4 0 0 0 1713 1202 1701 1991 1543 1278 1776 2745 2093 1910 2226 2657 3346 3595 3468 3216
0 0 0 0 0 0 0 0 0 0 0 0 0 0 0 0 0 0 0 0 0 0 6 11 16 20 61 108 346 349 312 288 478 210 156 91 300 75 50 2 9 31 39 284 921 518 624 522 22 6 5 0 0 0 2 0 0 0 0 0 0 0 0 0 0 18 1 30 8 10 0 0 527 1854 1584 1501 1582 1860 1814 2506 2682 1955 2630 2811 2913 3131 3438 3504
0 0 0 0 0 0 0 0 0 0 0 0 0 0 0 0 0 0 0 0 0 0 0 0 0 4 25 53 154 228 347 457 378 609 371 359 298 178 37 0 49 52 352 911 952 411 742 704 470 130 72 202 49 36 59 0 0 0 0 0 0 0 0 0 0 0 0 11 89 120 2 0 0 1530 1229 1539 1420 1723 2116 2138 2667 2476 3238 3555 3705 3596 3715 3923
0 0 0 0 0 0 0 0 0 0 0 0 0 0 0 0 0 0 0 0 0 0 0 0 0 6 32 31 76 114 217 356 493 453 246 272 263 141 56 51 55 15 289 641 76 122 493 438 108 304 232 76 1 0 0 4 0 0 0 0 0 0 0 0 0 3 8 2 99 29 18 0 1 114 1334 1106 873 1360 1750 1988 2531 3213 3498 3522 3820 3818 3830 3980
0 0 0 0 0 0 0 0 0 0 0 0 0 0 0 0 0 0 0 0 0 0 0 0 0 0 0 7 26 89 202 155 336 481 306 307 261 260 236 201 175 154 102 114 52 177 172 88 64 228 236 81 19 24 34 15 0 0 0 0 0 0 0 0 0 0 0 2 0 0 69 69 32 0 164 575 640 1106 1588 2069 2555 3007 3646 3736 3411 3374 3352 3621
0 0 0 0 0 0 0 0 0 0 0 0 0 0 0 0 0 0 0 0 0 0 0 0 0 0 0 0 3 53 203 130 348 255 278 215 128 348 430 207 99 75 78 62 44 34 148 146 158 97 194 165 92 47 15 0 2 0 5 10 0 0 0 0 0 0 0 14 0 0 436 174 1 0 419 957 335 701 1791 2968 3386 3314 3314 3479 3220 3180 3261 3521
0 0 0 0 0 0 0 0 0 0 0 0 0 0 0 0 0 0 0 0 0 0 0 0 0 0 0 0 0 0 68 39 73 47 102 28 65 462 304 417 186 137 11 116 184 396 131 173 437 283 222 59 43 4 9 2 1 9 8 2 0 0 0 0 0 0 0 0 0 0 15 100 1448 1566 2111 1421 1387 1614 2968 2656 2324 3156 3340 3258 3120 3311 3742 3778
0 0 0 0 0 0 0 0 0 0 0 0 0 0 0 0 0 0 0 0 0 0 0 0 0 0 0 0 0 0 0 0 0 0 0 0 8 24 5 373 12 7 28 10 301 282 216 156 236 302 205 132 93 22 67 6 2 12 42 53 9 0 0 0 0 0 4 32 0 16 127 85 2279 2175 1839 2185 2106 2118 2004 2101 2987 3379 3188 3355 3209 3504 3638 3662
0 0 0 0 0 0 0 0 0 0 0 0 0 0 0 0 0 0 0 0 0 0 0 0 0 0 0 0 0 0 0 0 0 0 0 0 0 0 0 0 0 0 0 0 33 168 350 87 163 158 84 85 104 67 14 14 6 25 230 639 932 527 15 0 0 5 26 50 17 28 33 1466 1435 1334 1903 1763 1948 1957 1817 2250 2912 2800 3538 3313 3223 3222 3102 2997
Wind_Speed
nan nan nan nan nan nan nan nan nan nan nan nan nan nan nan nan nan nan nan nan nan nan nan nan nan nan nan nan nan nan nan nan nan nan nan nan nan nan nan nan 26 23 24 23 17 14 12 12 10 8 8 7 5 8 11 9 11 8 7 9 6 10 10 13 11 10 6 6 7 5 5 2 1 1 1 5 3 4 4 5 6 5 6 7 11 9 6 8
nan nan nan nan nan nan nan nan nan nan nan nan nan nan nan nan nan nan nan nan nan nan nan nan nan nan nan nan nan nan nan nan nan nan nan nan nan nan nan 27 26 26 27 22 21 16 9 7 7 9 7 3 2 7 7 9 8 9 9 9 12 12 12 8 10 13 8 11 8 5 3 5 2 2 2 4 3 3 4 5 4 7 7 9 10 10 6 6
nan nan nan nan nan nan nan nan nan nan nan nan nan nan nan nan nan nan nan nan nan nan nan nan nan nan nan nan nan nan nan nan nan nan nan nan 18 20 nan 28 29 29 28 22 21 17 9 4 4 9 2 4 3 6 7 7 6 8 11 9 14 13 11 11 9 12 14 10 8 7 5 4 3 4 1 3 2 1 2 5 4 4 7 9 11 10 7 6
nan nan nan nan nan nan nan nan nan nan nan nan nan nan nan nan nan nan nan nan nan nan nan nan nan nan nan nan nan nan nan nan nan nan nan 12 nan 19 24 28 31 30 25 19 19 17 8 6 4 6 2 6 3 5 5 5 8 9 7 13 15 13 8 11 11 14 14 12 9 9 5 3 2 4 2 3 2 3 5 7 3 5 7 9 11 12 9 8
nan nan nan nan nan nan nan nan nan nan nan nan nan nan nan nan nan nan nan nan nan nan nan nan nan nan nan nan nan nan nan nan nan nan 6 11 17 19 24 27 29 29 24 19 19 16 15 12 8 4 5 3 2 3 5 5 9 6 12 13 11 9 9 12 11 13 14 11 9 8 8 9 6 6 3 3 6 8 10 8 7 7 8 10 11 13 12 10
nan nan nan nan nan nan nan nan nan nan nan nan nan nan nan nan nan nan nan nan nan nan nan nan nan nan nan nan nan nan nan nan nan nan 5 7 18 19 24 24 28 25 21 21 20 19 17 15 12 6 1 4 5 5 5 6 3 6 9 10 11 11 12 9 8 12 12 11 11 10 10 11 7 5 5 4 6 10 11 10 8 9 9 10 10 11 13 11
nan nan nan nan nan nan nan nan nan nan nan nan nan nan nan nan nan nan nan nan nan nan nan nan nan nan nan nan nan nan nan nan nan 7 6 9 15 18 21 23 24 21 21 21 20 19 17 15 14 3 3 1 4 5 4 3 3 7 8 12 10 11 13 9 9 11 12 12 13 12 11 11 6 6 6 6 6 8 11 10 9 10 10 11 11 11 13 13
nan nan nan nan nan nan nan nan nan nan nan nan nan nan nan nan nan nan nan nan nan nan nan nan nan nan nan nan nan nan nan nan nan 10 13 14 15 16 18 22 22 20 21 21 19 18 15 15 11 5 4 6 6 4 5 2 4 4 2 8 10 11 14 10 10 12 15 13 12 11 10 8 8 9 5 6 5 6 8 9 9 10 11 10 11 10 11 12
nan nan nan nan nan nan nan nan nan nan nan nan nan nan nan nan nan nan nan nan nan nan nan nan nan nan nan nan nan nan nan nan nan 13 18 nan 18 19 22 18 20 20 18 17 17 14 14 10 10 5 1 3 3 2 1 4 4 3 3 5 8 11 13 13 11 13 13 14 13 11 8 8 9 9 6 5 3 5 7 8 9 10 10 9 10 9 9 10
nan nan nan nan nan nan nan nan nan nan nan nan nan nan nan nan nan nan nan nan nan nan nan nan nan nan nan nan nan nan nan nan nan 11 nan nan 20 20 20 14 19 18 16 16 15 14 13 6 5 4 7 8 3 4 3 5 5 1 4 4 7 10 11 12 11 12 13 13 13 13 10 8 9 9 6 7 4 3 4 7 8 8 9 8 8 7 7 9
nan nan nan nan nan nan nan nan nan nan nan nan nan nan nan nan nan nan nan nan nan nan nan nan nan nan nan nan nan nan nan nan nan 13 nan 16 20 19 19 15 19 17 15 14 13 12 9 7 7 7 10 2 9 4 1 5 4 2 4 6 6 9 11 12 12 13 14 12 14 14 13 12 9 6 10 6 5 2 3 5 6 6 8 7 7 7 5 6
nan nan nan nan nan nan nan nan nan nan nan nan nan nan nan nan nan nan nan nan nan nan nan nan nan nan nan nan nan nan nan nan nan 14 14 14 15 16 14 10 14 12 12 12 11 11 10 8 8 6 2 4 3 4 4 2 1 2 5 5 6 7 10 11 12 13 14 15 14 16 15 8 5 8 6 5 5 4 4 4 5 7 7 7 6 5 4 4
nan nan nan nan nan nan nan nan nan nan nan nan nan nan nan nan nan nan nan nan nan nan nan nan nan nan nan nan nan nan nan nan nan nan nan nan nan 8 4 6 11 7 7 7 10 10 10 8 6 7 2 4 3 1 2 4 3 5 5 2 5 5 11 13 13 13 14 16 15 13 12 10 2 6 6 6 5 5 5 4 5 6 8 7 6 3 3 3
nan nan nan nan nan nan nan nan nan nan nan nan nan nan nan nan nan nan nan nan nan nan nan nan nan nan nan nan nan nan nan nan nan nan nan nan nan nan nan 7 7 6 5 3 6 8 7 7 6 6 5 7 2 4 8 6 5 4 5 3 4 7 nan 13 14 16 16 18 15 14 13 14 16 6 7 6 5 6 5 5 5 6 7 8 5 1 1 2
nan nan nan nan nan nan nan nan nan nan nan nan nan nan nan nan nan nan nan nan nan nan nan nan nan nan nan nan nan nan nan nan nan nan nan nan nan nan nan 11 10 8 5 5 8 7 7 7 7 8 7 7 5 6 6 4 4 3 4 4 7 6 nan 10 13 15 16 19 15 15 14 14 9 10 9 7 5 5 3 6 5 6 7 8 5 2 1 1
nan nan nan nan nan nan nan nan nan nan nan nan nan nan nan nan nan nan nan nan nan nan nan nan nan nan nan nan nan nan nan nan nan nan nan nan nan nan nan nan 11 nan nan nan nan 8 7 7 6 3 3 9 8 5 4 6 8 6 0 8 nan nan nan 8 10 10 13 20 18 15 20 19 16 14 8 8 5 5 4 5 5 6 6 7 5 4 3 1
nan nan nan nan nan nan nan nan nan nan nan nan nan nan nan nan nan nan nan nan nan nan nan nan nan nan nan nan nan nan nan nan nan nan nan nan nan nan nan nan nan nan nan nan 5 5 9 nan nan 6 7 4 1 1 5 4 5 7 nan nan nan nan nan 10 5 7 7 9 15 12 14 14 14 10 10 8 5 5 5 5 5 5 6 5 4 5 5 3
nan nan nan nan nan nan nan nan nan nan nan nan nan nan nan nan nan nan nan nan nan nan nan nan nan nan nan nan nan nan nan nan nan nan nan nan nan nan nan nan nan nan nan nan 7 nan 10 5 8 2 7 7 nan nan 4 5 nan nan nan nan nan nan nan nan nan 9 6 5 9 11 10 12 13 11 7 6 5 4 4 4 4 5 6 6 4 4 6 4
nan nan nan nan nan nan nan nan nan nan nan nan nan nan nan nan nan nan nan nan nan nan nan nan nan nan nan nan nan nan nan nan nan nan nan nan nan nan nan nan nan nan nan nan 10 nan 12 4 8 3 4 7 nan nan nan nan nan nan nan nan nan nan nan nan nan 12 10 10 8 7 9 9 8 7 6 4 4 3 3 3 3 2 5 6 5 5 5 5
nan nan nan nan nan nan nan nan nan nan nan nan nan nan nan nan nan nan nan nan nan nan nan nan nan nan nan nan nan nan nan nan nan nan nan nan nan nan nan nan nan nan nan nan 14 6 10 6 6 6 6 7 nan nan nan 5 8 nan nan nan nan nan nan 11 11 11 10 12 12 9 8 9 11 11 6 3 4 3 2 3 2 2 3 5 6 7 6 8
nan nan nan nan nan nan nan nan nan nan nan nan nan nan nan nan nan nan nan nan nan nan nan nan nan nan nan nan nan nan nan nan nan nan nan nan nan nan nan nan nan nan nan nan 7 14 7 3 5 4 nan 11 nan nan nan nan nan nan nan nan nan nan nan nan nan 12 11 13 nan 14 12 12 11 10 7 4 3 4 3 2 1 3 4 5 8 9 9 8
nan nan nan nan nan nan nan nan nan nan nan nan nan nan nan nan nan nan nan nan nan nan nan nan nan nan nan nan nan nan nan nan nan nan nan nan nan nan nan nan nan nan nan nan 11 13 6 3 5 4 10 nan nan nan nan nan nan nan 9 nan nan nan nan nan 11 8 9 9 15 18 17 16 14 10 5 1 3 2 2 1 1 2 4 4 6 8 9 8
nan nan nan nan nan nan nan nan nan nan nan nan nan nan nan nan nan nan nan nan nan nan nan nan nan nan nan nan nan nan nan nan nan nan nan nan nan nan nan nan nan nan nan nan nan nan nan 7 4 11 nan nan nan nan nan nan nan nan nan nan nan nan nan nan 10 7 6 5 12 16 nan 19 15 12 7 1 1 1 2 1 0 1 2 3 5 6 7 8
nan nan nan nan nan nan nan nan nan nan nan nan nan nan nan nan nan nan nan nan nan nan nan nan nan nan nan nan nan nan nan nan nan nan nan nan nan nan nan nan nan nan nan nan nan nan nan nan nan nan nan nan nan nan nan nan nan nan nan nan nan nan nan nan nan 8 5 1 4 9 10 13 12 9 6 2 1 1 1 2 2 1 2 3 4 5 6 8
nan nan nan nan nan nan nan nan nan nan nan nan nan nan nan nan nan nan nan nan nan nan nan nan nan nan nan nan nan nan nan nan nan nan nan nan nan nan nan nan nan nan nan nan nan nan nan nan nan nan nan nan nan nan nan nan nan nan nan nan nan nan nan nan nan nan nan 6 6 6 nan nan 12 8 7 5 2 1 1 3 3 3 3 4 4 5 5 6
nan nan nan nan nan nan nan nan nan nan nan nan nan nan nan nan nan nan nan nan nan nan nan nan nan nan nan nan nan nan nan nan nan nan nan nan nan nan nan nan nan nan nan nan nan nan nan nan nan nan nan nan nan nan nan nan nan nan nan nan nan nan nan nan nan nan nan nan 11 6 8 nan 10 9 8 5 0 2 2 5 5 4 4 5 4 4 6 7
nan nan nan nan nan nan nan nan nan nan nan nan nan nan nan nan nan nan nan nan nan nan nan nan nan nan nan nan nan nan nan nan nan nan nan nan nan nan nan nan nan nan nan nan nan nan nan nan nan nan nan nan nan nan nan nan nan nan nan nan nan nan nan nan nan nan nan nan 10 6 6 nan nan 13 11 7 4 1 4 4 5 4 6 7 6 5 7 8
nan nan nan nan nan nan nan nan nan nan nan nan nan nan nan nan nan nan nan nan nan nan nan nan nan nan nan nan nan nan nan nan nan nan nan nan nan nan nan nan nan nan nan nan nan nan nan nan nan nan nan nan nan nan nan nan nan nan nan nan nan nan nan nan nan nan nan nan nan 10 9 4 nan 14 12 11 8 3 4 4 5 5 6 6 7 7 8 9
nan nan nan nan nan nan nan nan nan nan nan nan nan nan nan nan nan nan nan nan nan nan nan nan nan nan nan nan nan nan nan nan nan nan nan nan nan nan nan nan nan nan nan nan nan nan nan nan nan nan nan nan nan nan nan nan nan nan nan nan nan nan nan nan nan nan 13 nan nan nan 11 nan nan nan 9 8 5 5 4 3 5 7 8 7 7 9 9 9
nan nan nan nan nan nan nan nan nan nan nan nan nan nan nan nan nan nan nan nan nan nan nan nan nan nan nan nan nan nan nan nan nan nan nan nan nan nan nan nan nan nan nan nan nan nan nan nan nan nan nan nan nan nan nan nan nan nan nan nan nan nan 17 nan 14 13 12 nan nan nan nan nan nan nan nan 8 9 nan nan 10 4 3 6 7 7 9 9 9
nan nan nan nan nan nan nan nan nan nan nan nan nan nan nan nan nan nan nan nan nan nan nan nan nan nan nan nan nan nan nan nan nan nan nan nan nan nan nan nan nan nan nan nan nan nan nan nan nan nan nan nan nan nan nan nan nan nan nan nan nan nan 15 14 15 13 nan nan 20 nan nan nan nan nan nan nan nan nan nan nan 11 7 5 5 6 7 9 10
nan nan nan nan nan nan nan nan nan nan nan nan nan nan nan nan nan nan nan nan nan nan nan nan nan nan nan nan nan nan nan nan nan nan nan nan nan nan nan nan nan nan nan nan nan nan nan nan nan nan nan nan nan nan nan nan nan nan nan nan nan nan nan nan nan nan nan nan 16 nan 13 12 nan nan nan nan nan nan 7 8 9 9 9 7 6 8 9 9
nan nan nan nan nan nan nan nan nan nan nan nan nan nan nan nan nan nan nan nan nan nan nan nan nan nan nan nan nan nan nan nan nan nan nan nan nan nan nan nan nan nan nan nan nan nan nan nan nan nan nan nan nan nan nan nan nan nan nan nan nan nan nan nan nan nan nan nan nan nan 13 8 nan nan nan nan nan nan 13 12 12 9 7 9 7 7 9 10
nan nan nan nan nan nan nan nan nan nan nan nan nan nan nan nan nan nan nan nan nan nan nan nan nan nan nan nan nan nan nan nan nan nan nan nan nan nan nan nan nan nan nan nan nan nan nan nan nan nan nan nan nan nan nan nan nan nan nan nan nan nan nan nan nan nan nan nan nan 13 9 nan nan nan nan nan nan 13 12 11 13 12 9 10 9 8 9 11
nan nan nan nan nan nan nan nan nan nan nan nan nan nan nan nan nan nan nan nan nan nan nan nan nan nan nan nan nan nan nan nan nan nan nan nan nan nan nan nan nan nan nan nan nan nan nan nan nan nan nan nan nan nan nan nan nan nan nan nan nan nan nan nan nan nan nan nan nan 9 nan nan nan nan nan 6 7 6 10 10 10 11 11 10 10 9 8 10
nan nan nan nan nan nan nan nan nan nan nan nan nan nan nan nan nan nan nan nan nan nan nan nan nan nan nan nan nan nan nan nan nan nan nan nan nan nan nan nan nan nan nan nan nan nan nan nan nan nan nan nan nan nan nan nan nan nan nan nan nan nan nan nan nan nan nan nan nan nan nan nan nan nan nan 13 9 8 9 9 9 11 11 10 10 11 10 10
nan nan nan nan nan nan nan nan nan nan nan nan nan nan nan nan nan nan nan nan nan nan nan nan nan nan nan nan nan nan nan nan nan nan nan nan nan nan nan nan nan nan nan nan nan nan nan nan nan nan nan nan nan nan nan nan nan nan nan nan nan nan nan nan nan nan nan nan 9 nan nan nan nan nan nan nan nan 10 9 9 11 13 12 10 11 11 12 11
nan nan nan nan nan nan nan nan nan nan nan nan nan nan nan nan nan nan nan nan nan nan nan nan nan nan nan 13 nan nan nan nan nan nan nan nan nan nan 33 nan nan nan nan nan nan nan nan nan nan nan nan nan nan nan nan nan nan nan nan nan nan nan nan nan nan nan nan nan nan nan nan nan nan nan nan nan nan nan 8 8 9 11 9 11 12 13 13 12
nan nan nan nan nan nan nan nan nan nan nan nan nan nan nan nan nan nan nan nan nan nan nan nan nan nan nan 18 17 nan nan nan nan nan nan nan nan 41 40 nan 29 nan 28 nan nan nan nan nan nan nan nan nan nan nan nan nan nan nan nan nan nan nan nan nan nan nan nan nan nan nan nan nan nan nan nan nan nan nan 7 5 7 9 10 10 12 13 13 13
nan nan nan nan nan nan nan nan nan nan nan nan nan nan nan nan nan nan nan nan nan nan nan nan nan nan nan 20 20 20 23 nan nan nan nan nan nan nan 43 39 38 35 32 24 nan nan nan nan nan nan nan nan nan nan nan nan nan nan nan nan nan nan nan nan nan nan nan nan nan nan nan nan nan nan nan nan nan 13 4 5 7 8 11 13 14 14 14 13
nan nan nan nan nan nan nan nan nan nan nan nan nan nan nan nan nan nan nan nan nan nan nan nan nan 13 16 12 21 21 22 22 nan nan nan nan nan nan nan nan nan 38 33 25 nan nan nan nan nan nan nan nan nan nan nan nan nan nan nan nan nan nan nan nan nan nan nan nan nan nan nan nan nan nan 10 nan 9 3 8 7 9 11 13 15 15 16 14 13
nan nan nan nan nan nan nan nan nan nan nan nan nan nan nan nan nan nan nan nan nan nan nan nan nan 10 15 17 18 nan 19 22 21 24 nan 23 nan 33 nan nan nan 34 32 26 nan nan nan nan nan nan nan nan nan nan nan nan nan nan nan nan nan nan nan nan nan nan nan nan nan nan nan nan nan nan 7 10 8 9 9 8 11 12 15 16 16 16 15 14
nan nan nan nan nan nan nan nan nan nan nan nan nan nan nan nan nan nan nan nan nan nan nan nan nan 9 18 16 18 18 20 21 20 23 24 24 25 nan nan nan nan 36 37 35 29 nan nan nan nan nan nan nan nan nan nan nan nan nan nan nan nan nan nan nan nan nan nan nan nan nan nan nan 10 11 11 12 10 11 9 9 13 13 14 16 16 16 15 13
nan nan nan nan nan nan nan nan nan nan nan nan nan nan nan nan nan nan nan nan nan nan nan nan nan nan 11 14 17 20 21 16 24 20 20 16 19 nan nan nan nan nan 38 38 33 36 nan nan nan nan nan nan nan nan nan nan nan nan nan nan nan nan nan nan nan nan nan nan nan nan nan nan 11 8 9 10 10 11 11 10 12 14 15 16 16 15 13 13
nan nan nan nan nan nan nan nan nan nan nan nan nan nan nan nan nan nan nan nan nan nan nan nan nan nan nan 10 14 16 22 20 19 22 18 nan 13 nan nan nan nan nan nan 40 36 33 27 28 nan nan nan nan nan nan nan nan nan nan nan nan nan nan nan nan nan nan nan nan nan nan nan nan 7 9 7 10 13 12 12 14 12 14 16 15 15 15 13 13
nan nan nan nan nan nan nan nan nan nan nan nan nan nan nan nan nan nan nan nan nan nan nan nan nan nan nan nan 10 13 17 21 17 21 17 18 16 13 nan nan nan nan 36 42 38 34 30 27 26 28 nan 26 nan nan nan nan nan nan nan nan nan nan nan nan nan nan nan nan nan 8 nan nan nan 11 11 10 10 10 11 13 15 16 17 16 15 15 13 14
nan nan nan nan nan nan nan nan nan nan nan nan nan nan nan nan nan nan nan nan nan nan nan nan nan nan nan nan nan 9 15 13 20 17 22 18 19 12 nan nan nan nan 35 35 nan 40 35 29 25 28 27 nan nan nan nan nan nan nan nan nan nan nan nan nan nan nan nan nan nan nan nan nan nan 6 6 10 9 8 10 14 17 16 15 16 16 16 15 15
nan nan nan nan nan nan nan nan nan nan nan nan nan nan nan nan nan nan nan nan nan nan nan nan nan nan nan nan nan nan 13 11 15 19 19 22 17 19 12 15 21 30 26 28 nan 38 38 nan nan 36 31 nan nan nan nan nan nan nan nan nan nan nan nan nan nan nan nan nan nan nan nan nan nan nan 14 11 10 4 10 14 16 16 16 18 18 18 16 15
nan nan nan nan nan nan nan nan nan nan nan nan nan nan nan nan nan nan nan nan nan nan nan nan nan nan nan nan nan nan 14 10 15 17 19 20 21 19 19 15 nan nan nan nan nan nan 35 30 30 nan 34 31 nan nan nan nan nan nan nan nan nan nan nan nan nan nan nan nan nan nan 12 10 nan nan 12 10 7 4 10 12 15 16 17 18 19 19 17 15
nan nan nan nan nan nan nan nan nan nan nan nan nan nan nan nan nan nan nan nan nan nan nan nan nan nan nan nan nan nan nan nan nan nan 14 nan nan 21 22 20 22 27 nan 37 33 35 37 31 30 32 32 nan nan nan nan nan nan nan nan nan nan nan nan nan nan nan nan nan nan nan nan 17 15 11 9 9 6 7 11 12 15 17 17 18 20 19 17 16
nan nan nan nan nan nan nan nan nan nan nan nan nan nan nan nan nan nan nan nan nan nan nan nan nan nan nan nan nan nan nan nan nan nan nan nan nan nan nan 21 nan nan nan nan 38 36 33 29 31 34 30 27 nan nan nan nan nan nan nan nan nan nan nan nan nan nan nan nan nan nan 17 nan 18 10 9 8 6 8 12 14 16 16 18 19 20 20 18 17
nan nan nan nan nan nan nan nan nan nan nan nan nan nan nan nan nan nan nan nan nan nan nan nan nan nan nan nan nan nan nan nan nan nan nan nan nan nan nan nan nan nan nan nan nan 35 37 nan 35 37 nan nan 31 nan nan nan nan nan 24 31 27 21 nan nan nan nan nan nan nan nan nan 30 21 18 14 10 7 11 13 15 18 19 19 20 20 19 18 16
Wind_Direction
nan nan nan nan nan nan nan nan nan nan nan nan nan nan nan nan nan nan nan nan nan nan nan nan nan nan nan nan nan nan nan nan nan nan nan nan nan nan nan nan 357 5 12 15 3 11 14 22 24 29 47 72 187 173 192 180 177 173 177 174 202 202 209 195 213 207 207 233 228 209 170 118 45 27 66 48 45 242 252 243 239 238 227 243 271 286 312 326
nan nan nan nan nan nan nan nan nan nan nan nan nan nan nan nan nan nan nan nan nan nan nan nan nan nan nan nan nan nan nan nan nan nan nan nan nan nan nan 352 359 3 15 13 8 13 11 15 21 36 45 59 133 189 152 197 170 169 189 181 208 199 223 174 215 212 211 222 197 206 171 126 198 50 16 68 304 296 272 255 276 273 266 278 295 298 323 350
nan nan nan nan nan nan nan nan nan nan nan nan nan nan nan nan nan nan nan nan nan nan nan nan nan nan nan nan nan nan nan nan nan nan nan nan 358 3 nan 355 359 6 17 11 15 17 21 1 13 44 47 110 130 187 148 198 147 203 169 204 222 201 211 224 225 226 218 215 184 188 194 144 226 119 308 110 255 280 245 262 279 294 301 312 316 321 336 10
nan nan nan nan nan nan nan nan nan nan nan nan nan nan nan nan nan nan nan nan nan nan nan nan nan nan nan nan nan nan nan nan nan nan nan 3 nan 358 1 356 359 10 20 18 16 19 32 9 3 71 78 99 206 147 139 192 144 207 171 203 207 207 208 246 242 224 216 206 188 168 179 176 209 140 106 211 214 221 201 244 241 289 312 321 335 330 341 10
nan nan nan nan nan nan nan nan nan nan nan nan nan nan nan nan nan nan nan nan nan nan nan nan nan nan nan nan nan nan nan nan nan nan 292 358 357 357 356 357 360 8 21 14 15 15 25 19 17 61 99 167 205 101 168 158 155 165 201 202 192 210 213 251 238 212 205 198 179 164 150 191 189 130 123 190 181 216 212 242 243 278 302 322 341 338 344 0
nan nan nan nan nan nan nan nan nan nan nan nan nan nan nan nan nan nan nan nan nan nan nan nan nan nan nan nan nan nan nan nan nan nan 167 7 353 349 350 353 3 10 13 10 17 15 22 23 33 40 76 167 200 164 187 149 154 142 242 205 201 206 213 245 237 207 181 197 181 182 167 153 135 155 151 175 175 213 207 224 250 278 299 316 334 341 341 355
nan nan nan nan nan nan nan nan nan nan nan nan nan nan nan nan nan nan nan nan nan nan nan nan nan nan nan nan nan nan nan nan nan 271 278 333 342 342 343 349 8 8 9 11 16 19 23 28 47 78 121 147 213 190 208 130 113 147 199 201 221 217 215 232 239 213 188 187 185 174 162 155 151 142 196 149 206 203 212 228 253 274 290 308 326 346 346 350
nan nan nan nan nan nan nan nan nan nan nan nan nan nan nan nan nan nan nan nan nan nan nan nan nan nan nan nan nan nan nan nan nan 293 294 307 331 333 340 347 360 359 6 14 12 20 19 32 42 55 83 173 195 162 216 79 56 81 211 215 226 215 215 214 219 203 195 182 174 165 161 183 172 172 187 144 187 200 230 242 261 276 293 310 324 345 346 348
nan nan nan nan nan nan nan nan nan nan nan nan nan nan nan nan nan nan nan nan nan nan nan nan nan nan nan nan nan nan nan nan nan 288 314 nan 329 337 346 346 0 357 4 10 14 16 26 11 39 58 129 111 192 196 220 136 336 134 267 247 239 219 212 204 207 193 185 185 173 161 172 191 188 175 155 156 181 214 231 254 268 281 294 310 324 340 349 346
nan nan nan nan nan nan nan nan nan nan nan nan nan nan nan nan nan nan nan nan nan nan nan nan nan nan nan nan nan nan nan nan nan 304 nan nan 327 338 358 351 354 358 2 3 8 13 25 356 47 29 64 37 92 229 160 124 211 140 327 295 248 224 203 203 200 198 189 178 180 164 182 202 201 163 204 158 220 235 242 261 275 284 291 302 313 331 347 346
nan nan nan nan nan nan nan nan nan nan nan nan nan nan nan nan nan nan nan nan nan nan nan nan nan nan nan nan nan nan nan nan nan 295 nan 321 330 343 359 359 359 360 3 352 2 7 354 12 12 30 40 266 69 292 113 213 114 271 324 316 266 224 202 203 205 201 186 198 188 175 173 187 187 162 186 245 237 255 257 269 283 281 284 288 306 318 343 348
nan nan nan nan nan nan nan nan nan nan nan nan nan nan nan nan nan nan nan nan nan nan nan nan nan nan nan nan nan nan nan nan nan 285 301 325 339 350 353 2 7 10 2 348 354 355 357 360 22 32 60 89 23 34 325 176 143 334 345 343 273 231 217 213 198 206 198 205 197 197 172 160 204 152 204 235 257 272 268 280 290 281 283 288 299 311 343 352
nan nan nan nan nan nan nan nan nan nan nan nan nan nan nan nan nan nan nan nan nan nan nan nan nan nan nan nan nan nan nan nan nan nan nan nan nan 325 325 8 10 17 19 0 345 346 347 3 17 46 11 74 80 141 261 47 264 352 344 334 329 233 222 216 212 206 203 208 203 198 182 203 176 167 231 247 271 282 281 286 294 278 285 286 301 308 358 338
nan nan nan nan nan nan nan nan nan nan nan nan nan nan nan nan nan nan nan nan nan nan nan nan nan nan nan nan nan nan nan nan nan nan nan nan nan nan nan 331 343 350 321 349 310 324 355 0 27 44 46 54 306 306 31 7 7 19 288 7 243 216 nan 214 204 219 203 217 206 199 193 194 219 238 233 249 267 288 287 294 295 282 289 293 308 311 345 330
nan nan nan nan nan nan nan nan nan nan nan nan nan nan nan nan nan nan nan nan nan nan nan nan nan nan nan nan nan nan nan nan nan nan nan nan nan nan nan 330 336 347 346 309 312 313 330 353 7 20 2 326 41 47 26 0 354 352 322 328 281 207 nan 237 213 214 203 221 206 205 190 216 180 230 238 237 254 268 259 280 295 285 289 307 311 302 263 293
nan nan nan nan nan nan nan nan nan nan nan nan nan nan nan nan nan nan nan nan nan nan nan nan nan nan nan nan nan nan nan nan nan nan nan nan nan nan nan nan 314 nan nan nan nan 300 310 320 17 268 359 9 24 20 25 11 338 322 262 263 nan nan nan 242 247 214 193 203 207 193 194 195 229 225 236 245 266 278 260 271 292 295 295 308 316 288 280 314
nan nan nan nan nan nan nan nan nan nan nan nan nan nan nan nan nan nan nan nan nan nan nan nan nan nan nan nan nan nan nan nan nan nan nan nan nan nan nan nan nan nan nan nan 328 297 311 nan nan 355 358 42 317 337 52 13 324 300 nan nan nan nan nan 240 264 220 214 205 197 202 189 183 223 232 252 257 257 274 264 275 290 298 284 297 305 303 307 345
nan nan nan nan nan nan nan nan nan nan nan nan nan nan nan nan nan nan nan nan nan nan nan nan nan nan nan nan nan nan nan nan nan nan nan nan nan nan nan nan nan nan nan nan 317 nan 308 325 305 318 309 339 nan nan 50 250 nan nan nan nan nan nan nan nan nan 238 199 212 175 191 180 172 176 230 239 261 269 259 268 278 306 316 309 301 312 309 323 349
nan nan nan nan nan nan nan nan nan nan nan nan nan nan nan nan nan nan nan nan nan nan nan nan nan nan nan nan nan nan nan nan nan nan nan nan nan nan nan nan nan nan nan nan 296 nan 295 307 287 295 347 322 nan nan nan nan nan nan nan nan nan nan nan nan nan 225 190 194 183 166 171 175 187 219 230 257 283 277 255 251 255 317 308 312 320 315 326 341
nan nan nan nan nan nan nan nan nan nan nan nan nan nan nan nan nan nan nan nan nan nan nan nan nan nan nan nan nan nan nan nan nan nan nan nan nan nan nan nan nan nan nan nan 281 320 285 313 305 314 316 302 nan nan nan 155 169 nan nan nan nan nan nan 247 228 229 219 187 169 155 146 149 169 194 221 255 290 297 274 258 247 292 313 331 333 326 339 344
nan nan nan nan nan nan nan nan nan nan nan nan nan nan nan nan nan nan nan nan nan nan nan nan nan nan nan nan nan nan nan nan nan nan nan nan nan nan nan nan nan nan nan nan 272 264 276 283 300 320 nan 254 nan nan nan nan nan nan nan nan nan nan nan nan nan 248 234 194 nan 175 166 153 165 182 198 238 307 346 328 276 289 338 347 351 351 345 349 341
nan nan nan nan nan nan nan nan nan nan nan nan nan nan nan nan nan nan nan nan nan nan nan nan nan nan nan nan nan nan nan nan nan nan nan nan nan nan nan nan nan nan nan nan 256 260 275 278 276 288 255 nan nan nan nan nan nan nan 173 nan nan nan nan nan 240 261 243 215 174 165 161 164 164 164 188 225 358 344 338 308 248 347 11 359 355 2 360 343
nan nan nan nan nan nan nan nan nan nan nan nan nan nan nan nan nan nan nan nan nan nan nan nan nan nan nan nan nan nan nan nan nan nan nan nan nan nan nan nan nan nan nan nan nan nan nan 255 291 268 nan nan nan nan nan nan nan nan nan nan nan nan nan nan 256 256 285 238 189 182 nan 169 167 151 142 194 48 9 15 34 182 250 46 23 11 8 4 352
nan nan nan nan nan nan nan nan nan nan nan nan nan nan nan nan nan nan nan nan nan nan nan nan nan nan nan nan nan nan nan nan nan nan nan nan nan nan nan nan nan nan nan nan nan nan nan nan nan nan nan nan nan nan nan nan nan nan nan nan nan nan nan nan nan 214 233 102 192 193 182 182 186 175 146 153 356 123 29 58 100 120 359 24 23 14 4 4
nan nan nan nan nan nan nan nan nan nan nan nan nan nan nan nan nan nan nan nan nan nan nan nan nan nan nan nan nan nan nan nan nan nan nan nan nan nan nan nan nan nan nan nan nan nan nan nan nan nan nan nan nan nan nan nan nan nan nan nan nan nan nan nan nan nan nan 260 266 209 nan nan 246 206 171 232 262 29 12 39 43 44 24 7 24 7 356 13
nan nan nan nan nan nan nan nan nan nan nan nan nan nan nan nan nan nan nan nan nan nan nan nan nan nan nan nan nan nan nan nan nan nan nan nan nan nan nan nan nan nan nan nan nan nan nan nan nan nan nan nan nan nan nan nan nan nan nan nan nan nan nan nan nan nan nan nan 251 220 190 nan 275 239 226 227 108 15 325 46 44 30 26 19 20 354 348 357
nan nan nan nan nan nan nan nan nan nan nan nan nan nan nan nan nan nan nan nan nan nan nan nan nan nan nan nan nan nan nan nan nan nan nan nan nan nan nan nan nan nan nan nan nan nan nan nan nan nan nan nan nan nan nan nan nan nan nan nan nan nan nan nan nan nan nan nan 251 242 219 nan nan 275 254 235 185 84 22 31 41 34 24 17 8 1 347 344
nan nan nan nan nan nan nan nan nan nan nan nan nan nan nan nan nan nan nan nan nan nan nan nan nan nan nan nan nan nan nan nan nan nan nan nan nan nan nan nan nan nan nan nan nan nan nan nan nan nan nan nan nan nan nan nan nan nan nan nan nan nan nan nan nan nan nan nan nan 259 258 229 nan 274 282 277 243 185 89 40 24 25 19 9 1 357 350 346
nan nan nan nan nan nan nan nan nan nan nan nan nan nan nan nan nan nan nan nan nan nan nan nan nan nan nan nan nan nan nan nan nan nan nan nan nan nan nan nan nan nan nan nan nan nan nan nan nan nan nan nan nan nan nan nan nan nan nan nan nan nan nan nan nan nan 245 nan nan nan 255 nan nan nan 300 285 256 217 183 84 40 13 7 356 347 347 349 340
nan nan nan nan nan nan nan nan nan nan nan nan nan nan nan nan nan nan nan nan nan nan nan nan nan nan nan nan nan nan nan nan nan nan nan nan nan nan nan nan nan nan nan nan nan nan nan nan nan nan nan nan nan nan nan nan nan nan nan nan nan nan 233 nan 241 244 252 nan nan nan nan nan nan nan nan 288 261 nan nan 240 231 346 355 349 339 335 330 333
nan nan nan nan nan nan nan nan nan nan nan nan nan nan nan nan nan nan nan nan nan nan nan nan nan nan nan nan nan nan nan nan nan nan nan nan nan nan nan nan nan nan nan nan nan nan nan nan nan nan nan nan nan nan nan nan nan nan nan nan nan nan 244 248 256 255 nan nan 252 nan nan nan nan nan nan nan nan nan nan nan 237 248 291 321 325 324 328 330
nan nan nan nan nan nan nan nan nan nan nan nan nan nan nan nan nan nan nan nan nan nan nan nan nan nan nan nan nan nan nan nan nan nan nan nan nan nan nan nan nan nan nan nan nan nan nan nan nan nan nan nan nan nan nan nan nan nan nan nan nan nan nan nan nan nan nan nan 251 nan 245 256 nan nan nan nan nan nan 257 238 237 232 253 284 319 335 321 318
nan nan nan nan nan nan nan nan nan nan nan nan nan nan nan nan nan nan nan nan nan nan nan nan nan nan nan nan nan nan nan nan nan nan nan nan nan nan nan nan nan nan nan nan nan nan nan nan nan nan nan nan nan nan nan nan nan nan nan nan nan nan nan nan nan nan nan nan nan nan 247 237 nan nan nan nan nan nan 244 241 241 240 243 274 291 321 322 314
nan nan nan nan nan nan nan nan nan nan nan nan nan nan nan nan nan nan nan nan nan nan nan nan nan nan nan nan nan nan nan nan nan nan nan nan nan nan nan nan nan nan nan nan nan nan nan nan nan nan nan nan nan nan nan nan nan nan nan nan nan nan nan nan nan nan nan nan nan 242 244 nan nan nan nan nan nan 259 262 256 251 259 253 260 267 282 317 320
nan nan nan nan nan nan nan nan nan nan nan nan nan nan nan nan nan nan nan nan nan nan nan nan nan nan nan nan nan nan nan nan nan nan nan nan nan nan nan nan nan nan nan nan nan nan nan nan nan nan nan nan nan nan nan nan nan nan nan nan nan nan nan nan nan nan nan nan nan 284 nan nan nan nan nan 203 226 247 269 273 272 278 278 269 268 275 294 309
nan nan nan nan nan nan nan nan nan nan nan nan nan nan nan nan nan nan nan nan nan nan nan nan nan nan nan nan nan nan nan nan nan nan nan nan nan nan nan nan nan nan nan nan nan nan nan nan nan nan nan nan nan nan nan nan nan nan nan nan nan nan nan nan nan nan nan nan nan nan nan nan nan nan nan 212 215 239 268 269 277 278 279 280 272 274 285 294
nan nan nan nan nan nan nan nan nan nan nan nan nan nan nan nan nan nan nan nan nan nan nan nan nan nan nan nan nan nan nan nan nan nan nan nan nan nan nan nan nan nan nan nan nan nan nan nan nan nan nan nan nan nan nan nan nan nan nan nan nan nan nan nan nan nan nan nan 259 nan nan nan nan nan nan nan nan 239 246 253 268 275 284 288 273 269 274 287
nan nan nan nan nan nan nan nan nan nan nan nan nan nan nan nan nan nan nan nan nan nan nan nan nan nan nan 268 nan nan nan nan nan nan nan nan nan nan 204 nan nan nan nan nan nan nan nan nan nan nan nan nan nan nan nan nan nan nan nan nan nan nan nan nan nan nan nan nan nan nan nan nan nan nan nan nan nan nan 250 258 279 288 292 277 272 268 268 277
nan nan nan nan nan nan nan nan nan nan nan nan nan nan nan nan nan nan nan nan nan nan nan nan nan nan nan 271 263 nan nan nan nan nan nan nan nan 208 206 nan 201 nan 192 nan nan nan nan nan nan nan nan nan nan nan nan nan nan nan nan nan nan nan nan nan nan nan nan nan nan nan nan nan nan nan nan nan nan nan 238 270 287 288 284 275 267 272 272 273
nan nan nan nan nan nan nan nan nan nan nan nan nan nan nan nan nan nan nan nan nan nan nan nan nan nan nan 264 250 256 259 nan nan nan nan nan nan nan 208 206 199 189 186 183 nan nan nan nan nan nan nan nan nan nan nan nan nan nan nan nan nan nan nan nan nan nan nan nan nan nan nan nan nan nan nan nan nan 179 208 272 289 282 273 270 266 265 270 272
nan nan nan nan nan nan nan nan nan nan nan nan nan nan nan nan nan nan nan nan nan nan nan nan nan 263 257 257 268 249 260 264 nan nan nan nan nan nan nan nan nan 193 184 182 nan nan nan nan nan nan nan nan nan nan nan nan nan nan nan nan nan nan nan nan nan nan nan nan nan nan nan nan nan nan 171 nan 232 222 224 271 293 292 280 269 264 264 265 267
nan nan nan nan nan nan nan nan nan nan nan nan nan nan nan nan nan nan nan nan nan nan nan nan nan 261 253 250 251 nan 247 262 265 272 nan 279 nan 231 nan nan nan 190 191 193 nan nan nan nan nan nan nan nan nan nan nan nan nan nan nan nan nan nan nan nan nan nan nan nan nan nan nan nan nan nan 193 220 216 234 241 267 287 281 282 280 275 271 266 266
nan nan nan nan nan nan nan nan nan nan nan nan nan nan nan nan nan nan nan nan nan nan nan nan nan 267 269 248 249 257 245 257 254 258 267 282 274 nan nan nan nan 196 199 202 190 nan nan nan nan nan nan nan nan nan nan nan nan nan nan nan nan nan nan nan nan nan nan nan nan nan nan nan 206 174 201 230 226 245 245 258 286 288 283 282 277 275 274 271
nan nan nan nan nan nan nan nan nan nan nan nan nan nan nan nan nan nan nan nan nan nan nan nan nan nan 264 257 259 255 253 270 268 272 273 262 280 nan nan nan nan nan 202 205 196 205 nan nan nan nan nan nan nan nan nan nan nan nan nan nan nan nan nan nan nan nan nan nan nan nan nan nan 202 164 212 238 249 262 273 273 290 294 296 289 281 276 273 275
nan nan nan nan nan nan nan nan nan nan nan nan nan nan nan nan nan nan nan nan nan nan nan nan nan nan nan 263 272 267 264 254 268 271 263 nan 263 nan nan nan nan nan nan 198 193 194 199 198 nan nan nan nan nan nan nan nan nan nan nan nan nan nan nan nan nan nan nan nan nan nan nan nan 219 205 214 242 252 260 275 284 287 295 300 297 288 283 282 279
nan nan nan nan nan nan nan nan nan nan nan nan nan nan nan nan nan nan nan nan nan nan nan nan nan nan nan nan 271 266 262 269 264 261 266 270 255 258 nan nan nan nan 192 189 189 203 203 202 193 192 nan 193 nan nan nan nan nan nan nan nan nan nan nan nan nan nan nan nan nan 206 nan nan nan 203 185 215 239 276 287 294 295 298 300 297 285 279 279 278
nan nan nan nan nan nan nan nan nan nan nan nan nan nan nan nan nan nan nan nan nan nan nan nan nan nan nan nan nan 259 259 264 267 268 254 257 252 242 nan nan nan nan 195 183 nan 204 205 197 199 199 191 nan nan nan nan nan nan nan nan nan nan nan nan nan nan nan nan nan nan nan nan nan nan 144 244 196 213 275 300 304 302 296 299 299 289 277 276 278
nan nan nan nan nan nan nan nan nan nan nan nan nan nan nan nan nan nan nan nan nan nan nan nan nan nan nan nan nan nan 244 242 269 252 247 253 239 237 237 265 231 219 201 189 nan 211 206 nan nan 192 192 nan nan nan nan nan nan nan nan nan nan nan nan nan nan nan nan nan nan nan nan nan nan nan 217 186 200 270 317 313 304 299 294 293 294 286 280 282
nan nan nan nan nan nan nan nan nan nan nan nan nan nan nan nan nan nan nan nan nan nan nan nan nan nan nan nan nan nan 252 242 273 248 246 231 224 227 238 239 nan nan nan nan nan nan 210 206 198 nan 185 187 nan nan nan nan nan nan nan nan nan nan nan nan nan nan nan nan nan nan 193 176 nan nan 176 185 192 247 303 295 297 303 300 299 297 291 283 280
nan nan nan nan nan nan nan nan nan nan nan nan nan nan nan nan nan nan nan nan nan nan nan nan nan nan nan nan nan nan nan nan nan nan 233 nan nan 236 228 230 220 212 nan 208 206 215 212 215 203 192 190 nan nan nan nan nan nan nan nan nan nan nan nan nan nan nan nan nan nan nan nan 171 209 201 197 197 206 262 287 305 307 301 302 304 301 293 284 281
nan nan nan nan nan nan nan nan nan nan nan nan nan nan nan nan nan nan nan nan nan nan nan nan nan nan nan nan nan nan nan nan nan nan nan nan nan nan nan 235 nan nan nan nan 214 210 211 206 196 203 196 190 nan nan nan nan nan nan nan nan nan nan nan nan nan nan nan nan nan nan 169 nan 205 194 210 214 249 289 302 304 302 304 309 304 301 294 287 283
nan nan nan nan nan nan nan nan nan nan nan nan nan nan nan nan nan nan nan nan nan nan nan nan nan nan nan nan nan nan nan nan nan nan nan nan nan nan nan nan nan nan nan nan nan 211 219 nan 202 207 nan nan 192 nan nan nan nan nan 226 218 211 213 nan nan nan nan nan nan nan nan nan 199 183 186 200 222 266 290 298 309 304 308 309 305 299 293 288 287